Location: Lake Almanor
(40.2485°N, 121.1442°W)
Time: 00:55:37
(UTC-08:00)

STARLINK-1109 - Pass Details

Date: 31 January 2020
Orbit: 348 x 350 km, 53.0° (Epoch: 22 February)

Event Time Altitude Azimuth Distance (km) Brightness Sun altitude
Rises 19:49:25 0° 294° (WNW) 2,160 7.7 -28.3°
Reaches altitude 10° 19:51:51 10° 273° (W) 1,313 6.5 -28.8°
Enters shadow 19:52:07 11° 269° (W) 1,239 6.3 -28.9°
